Lid_Strength_Index
4 3 3 2 2 2 2 2 2 2 2 2 2 2 3 3 3 7 9 4 3 -0 2 8 9 9 9 11 10 11 15 16 16 14 13 11 11 10 8 8 7 6 7 6 5
4 3 3 3 2 2 2 2 2 2 2 2 2 2 3 3 8 9 4 1 1 1 8 10 11 11 13 12 12 13 15 15 14 14 14 12 11 10 10 9 9 8 6 6 6
5 4 3 3 2 2 2 2 2 2 2 2 2 2 2 5 12 10 3 2 1 4 7 9 10 11 14 13 13 14 16 14 13 12 13 12 11 9 10 11 9 9 8 7 6
5 5 4 4 3 2 2 2 2 2 2 2 2 1 3 9 17 8 2 2 2 6 8 10 11 14 15 15 13 14 13 13 12 11 11 12 10 10 9 11 8 8 7 8 7
5 5 5 4 3 3 2 2 2 2 2 2 1 2 8 12 11 6 4 5 6 7 9 11 12 14 15 14 13 14 14 12 12 11 12 10 11 11 11 10 8 7 8 9 8
5 5 5 4 4 3 3 2 2 2 2 2 1 3 11 14 7 7 7 7 7 8 10 10 12 12 13 14 14 13 12 13 12 12 12 12 12 11 12 10 10 9 9 9 9
5 5 5 5 4 3 3 3 3 3 3 2 1 8 11 11 8 8 7 8 7 8 10 9 10 12 13 14 12 13 14 13 13 12 13 12 13 13 12 11 11 11 10 9 9
5 5 5 5 4 3 3 3 3 3 2 2 2 10 12 8 8 8 8 8 7 7 8 9 10 11 12 11 13 14 15 18 15 13 13 13 16 12 12 13 12 12 12 10 10
5 5 5 5 4 3 3 2 3 3 3 3 9 12 14 6 9 8 8 9 8 8 9 8 10 13 13 16 17 16 19 18 16 13 13 14 16 12 12 13 13 12 12 11 11
4 5 5 5 4 4 3 3 4 5 7 9 9 14 11 12 10 9 9 9 10 11 11 12 14 16 16 18 20 18 19 17 19 15 14 15 15 13 13 13 13 13 13 13 12
4 5 5 5 4 5 7 9 11 12 11 13 13 13 12 10 9 10 9 10 11 12 16 14 16 18 17 15 15 16 18 19 17 14 15 16 15 13 13 14 14 12 12 12 12
4 5 5 5 5 6 9 11 12 11 15 12 12 12 10 10 13 11 9 13 13 16 15 17 17 16 14 14 15 15 17 19 16 15 15 15 15 14 13 13 13 13 12 12 12
4 5 5 5 5 9 10 11 8 9 15 14 12 12 12 10 13 12 10 13 15 16 17 18 16 14 15 16 15 16 17 18 17 15 15 17 18 16 13 13 13 12 12 12 12
4 5 5 5 10 11 11 9 8 9 16 16 15 13 11 11 13 10 11 13 15 16 17 17 15 16 16 16 15 16 15 15 16 18 20 17 21 17 15 14 13 13 13 13 12
4 5 6 7 11 13 10 9 9 11 19 16 15 11 11 13 14 12 12 13 16 16 17 18 17 17 17 16 14 16 15 15 16 17 19 18 22 18 15 14 14 14 13 13 13
5 6 6 9 11 10 9 10 10 15 19 18 15 15 15 14 14 13 14 13 14 16 16 17 15 16 16 15 14 14 15 17 17 18 26 18 21 19 17 14 14 14 13 13 13
5 5 7 8 13 10 10 11 16 17 16 18 17 16 16 17 15 15 17 18 19 21 24 19 18 17 15 17 15 16 20 28 27 28 26 20 21 18 16 14 13 13 13 12 13
5 7 8 9 9 10 11 14 19 17 18 17 17 17 18 17 17 16 17 19 18 20 25 24 23 18 16 16 17 17 19 25 29 27 25 19 21 17 15 13 12 12 13 13 14
6 9 10 10 9 10 13 17 16 16 16 17 18 19 19 17 17 18 19 20 19 19 22 25 23 17 16 16 16 18 21 17 23 24 25 22 19 16 14 14 13 12 13 13 14
9 10 10 9 10 11 15 16 16 15 16 16 17 18 19 19 19 19 19 17 18 17 18 22 24 19 17 16 16 17 15 23 24 30 29 25 23 20 16 15 14 13 13 13 14
9 12 10 9 10 13 18 16 15 15 15 17 17 19 19 19 18 19 18 17 17 17 17 21 22 22 18 21 19 18 20 18 19 21 28 31 23 18 16 15 15 14 13 13 13
10 15 10 10 15 22 19 16 14 15 15 16 17 17 18 18 19 19 18 18 15 16 18 18 21 24 23 19 17 18 18 18 24 27 25 24 23 16 15 15 15 14 13 13 13
13 14 10 10 18 21 18 16 15 16 16 17 17 16 17 18 19 19 18 16 16 16 17 17 22 25 22 21 19 19 17 17 19 21 24 27 23 17 16 15 15 15 14 14 14
12 16 15 15 16 16 17 17 16 14 15 16 17 16 17 18 18 19 18 17 15 16 13 16 24 22 21 20 20 22 20 17 20 28 25 24 23 17 21 20 17 17 17 17 17
12 15 15 17 18 16 15 15 16 17 15 15 17 17 17 18 20 19 18 18 16 13 16 17 23 26 23 21 20 20 21 20 23 21 24 24 24 20 18 19 18 18 16 16 16
13 14 15 17 15 15 15 17 16 16 16 17 17 16 17 18 17 18 18 18 18 17 17 17 22 24 24 24 22 23 20 20 22 24 22 24 20 15 15 16 18 17 16 16 16
9 10 10 14 15 14 14 15 15 14 15 14 15 16 17 16 16 17 16 17 17 17 18 19 22 24 23 26 26 23 23 20 21 20 20 22 18 16 17 15 15 14 14 15 14